NEVŞEHİR ÇAT BALON UÇUŞ SAHASI

  • SEKTÖREL METEOROLOJİK DEĞERLENDİRME

  • ÇAT UÇULMAZ

Meteorolojik şartların belirlenen saat aralığında uçuş için uygun olmadığı değerlendirilmiştir.

  • GÜNCELLEME TARİHİ ve SAATİ :

  • 07.12.2021 - 17:42

  • GEÇERLİ TARİH ve SAATLER :

  • 08.12.2021 - 04:15 - 14:20

Bu bölümde yer alan bildirim meteorolojik veriler doğrultusunda ilgili gün ve zaman aralığında planlanan uçuşlara dair bağlayıcı niteliktedir. Kırmızı ve Sarı bayrak durumlarında kalkış uygunluğu verilmeyecektir. Yeşil bayrak durumunda nihai uçma kararı pilot ve işletme sorumluluğundadır
Kırmızı ve/veya sarı bayrağın ilan edildiği durumlarda yalnızca öğretmen pilot ile beraber yapılacak eğitim uçuşları (çift kumanda) için SHGM yetkilileri ile irtibata geçilerek eğitim uçuşları gerçekleştirilebilecektir.

METAR

LTAZ 080550Z 14009KT 9999 SCT040 04/03 Q1008 RMK RWY29 15005KT

TAF

TAF LTAZ 080440Z 0806/0906 09012KT 9999 SCT040 BKN100 PROB40 TEMPO 0813/0817 -RA BECMG 0815/0818 VRB02KT BKN025 BKN080 PROB40 TEMPO 0820/0823 -RA

METAR - TAF bilgileri Aviation Weather Center'dan alınmaktadır.

AIRGRAM

Airgram Meteoroloji Genel Müdürlüğü'nden alınmaktadır.

Meteorolojik veriler sitede bilgilendirme amacıyla yer almaktadır.